Date,TemperatureHighF,TemperatureAvgF,TemperatureLowF,DewpointHighF,DewpointAvgF,DewpointLowF,HumidityHigh,HumidityAvg,HumidityLow,PressureMaxIn,PressureMinIn,WindSpeedMaxMPH,WindSpeedAvgMPH,GustSpeedMaxMPH,PrecipitationSumIn
2013-1-14,51,42,34,-100,-100,-100,0,0,100,0.00,40.00,0,-999,0,0.00
2013-1-15,38,33,28,-100,-100,-100,0,0,100,0.00,40.00,0,-999,0,0.00
2013-1-16,30,29,28,-100,-100,-100,0,0,100,0.00,40.00,0,-999,0,0.00
2013-1-17,38,28,18,-100,-100,-100,0,0,100,0.00,40.00,0,-999,0,0.02
2013-1-18,21,16,9,-100,-100,-100,0,0,100,0.00,40.00,0,-999,0,0.01
2013-1-19,36,25,18,-100,-100,-100,0,0,100,0.00,40.00,0,-999,0,0.00
2013-1-20,45,33,22,-100,-100,-100,0,0,100,0.00,40.00,0,-999,0,0.07
2013-1-21,26,22,17,-100,-100,-100,0,0,100,0.00,40.00,0,-999,0,0.02
2013-1-22,22,17,8,-100,-100,-100,0,0,100,0.00,40.00,0,-999,0,0.00
2013-1-23,8,3,-2,-100,-100,-100,0,0,100,0.00,40.00,0,-999,0,0.00
2013-1-24,13,4,-3,-100,-100,-100,0,0,100,0.00,40.00,0,-999,0,0.00
2013-1-25,19,11,4,-100,-100,-100,0,0,100,0.00,40.00,0,-999,0,0.00
2013-1-26,19,14,11,-100,-100,-100,0,0,100,0.00,40.00,0,-999,0,0.00
2013-1-27,23,16,11,-100,-100,-100,0,0,100,0.00,40.00,0,-999,0,0.00
2013-1-28,24,18,13,-100,-100,-100,0,0,100,0.00,40.00,0,-999,0,0.00
2013-1-29,32,25,14,-100,-100,-100,0,0,100,0.00,40.00,0,-999,0,0.00
2013-1-30,36,34,30,-100,-100,-100,0,0,100,0.00,40.00,0,-999,0,0.44
2013-1-31,54,38,29,-100,-100,-100,0,0,100,0.00,40.00,0,-999,0,0.45
2013-2-1,29,23,17,-100,-100,-100,0,0,100,0.00,40.00,0,-999,0,0.01
2013-2-2,25,20,13,-100,-100,-100,0,0,100,0.00,40.00,0,-999,0,0.00
2013-2-3,26,22,16,-100,-100,-100,0,0,100,0.00,40.00,0,-999,0,0.00
2013-2-4,27,23,18,-100,-100,-100,0,0,100,0.00,40.00,0,-999,0,0.00
2013-2-5,27,19,11,-100,-100,-100,0,0,100,0.00,40.00,0,-999,0,0.00
2013-2-6,35,25,18,-100,-100,-100,0,0,100,0.00,40.00,0,-999,0,0.00
2013-2-7,23,18,12,-100,-100,-100,0,0,100,0.00,40.00,0,-999,0,0.00
2013-2-8,20,15,12,-100,-100,-100,0,0,100,0.00,40.00,0,-999,0,0.00
2013-2-9,20,16,13,-100,-100,-100,0,0,100,0.00,40.00,0,-999,0,0.00
2013-2-10,32,20,9,-100,-100,-100,0,0,100,0.00,40.00,0,-999,0,0.11
2013-2-11,29,20,11,-100,-100,-100,0,0,100,0.00,40.00,0,-999,0,0.03
2013-2-12,40,35,29,-100,-100,-100,0,0,100,0.00,40.00,0,-999,0,0.25
2013-2-13,39,32,25,-100,-100,-100,0,0,100,0.00,40.00,0,-999,0,0.01
2013-2-14,38,29,23,-100,-100,-100,0,0,100,0.00,40.00,0,-999,0,0.00
2013-2-15,47,33,21,-100,-100,-100,0,0,100,0.00,40.00,0,-999,0,0.00
2013-2-16,38,33,26,-100,-100,-100,0,0,100,0.00,40.00,0,-999,0,0.00
2013-2-17,26,19,14,-100,-100,-100,0,0,100,0.00,40.00,0,-999,0,0.00
2013-2-18,27,19,10,-100,-100,-100,0,0,100,0.00,40.00,0,-999,0,0.00
2013-2-19,40,29,18,-100,-100,-100,0,0,100,0.00,40.00,0,-999,0,0.09
2013-2-20,34,30,25,-100,-100,-100,0,0,100,0.00,40.00,0,-999,0,0.12
2013-2-21,25,22,19,-100,-100,-100,0,0,100,0.00,40.00,0,-999,0,0.01
2013-2-22,38,29,18,-100,-100,-100,0,0,100,0.00,40.00,0,-999,0,0.00
2013-2-23,35,31,27,-100,-100,-100,0,0,100,0.00,40.00,0,-999,0,0.00
2013-2-24,32,31,29,-100,-100,-100,0,0,100,0.00,40.00,0,-999,0,0.01
2013-2-25,40,33,25,-100,-100,-100,0,0,100,0.00,40.00,0,-999,0,0.25
2013-2-26,40,35,32,-100,-100,-100,0,0,100,0.00,40.00,0,-999,0,0.22
2013-2-27,34,32,31,-100,-100,-100,0,0,100,0.00,40.00,0,-999,0,0.05
2013-2-28,45,36,31,-100,-100,-100,0,0,100,0.00,40.00,0,-999,0,0.10
2013-3-1,37,34,30,-100,-100,-100,0,0,100,0.00,40.00,0,-999,0,0.01
2013-3-2,41,34,30,-100,-100,-100,0,0,100,0.00,40.00,0,-999,0,0.00
2013-3-3,41,33,29,-100,-100,-100,0,0,100,0.00,40.00,0,-999,0,0.03
2013-3-4,34,29,27,-100,-100,-100,0,0,100,0.00,40.00,0,-999,0,0.03
2013-3-5,42,34,27,-100,-100,-100,0,0,100,0.00,40.00,0,-999,0,0.00
2013-3-6,36,34,31,-100,-100,-100,0,0,100,0.00,40.00,0,-999,0,0.00
2013-3-7,33,31,30,-100,-100,-100,0,0,100,0.00,40.00,0,-999,0,0.00
2013-3-8,45,35,29,-100,-100,-100,0,0,100,0.00,40.00,0,-999,0,0.01
2013-3-9,54,36,22,-100,-100,-100,0,0,100,0.00,40.00,0,-999,0,0.01
2013-3-10,47,35,23,-100,-100,-100,0,0,100,0.00,40.00,0,-999,0,0.00
2013-3-11,50,40,32,-100,-100,-100,0,0,100,0.00,40.00,0,-999,0,0.00
2013-3-12,49,43,36,-100,-100,-100,0,0,100,0.00,40.00,0,-999,0,0.39
2013-3-13,46,41,31,-100,-100,-100,0,0,100,0.00,40.00,0,-999,0,0.23
2013-3-14,35,29,18,-100,-100,-100,0,0,100,0.00,40.00,0,-999,0,0.01
2013-3-15,37,26,16,-100,-100,-100,0,0,100,0.00,40.00,0,-999,0,0.00
2013-3-16,32,28,23,-100,-100,-100,0,0,100,0.00,40.00,0,-999,0,0.00
2013-3-17,29,24,18,-100,-100,-100,0,0,100,0.00,40.00,0,-999,0,0.00
2013-3-18,37,26,15,-100,-100,-100,0,0,100,0.00,40.00,0,-999,0,0.00
2013-3-19,31,28,24,-100,-100,-100,0,0,100,0.00,40.00,0,-999,0,0.00
2013-3-20,33,28,24,-100,-100,-100,0,0,100,0.00,40.00,0,-999,0,0.00
2013-3-21,39,30,22,-100,-100,-100,0,0,100,0.00,40.00,0,-999,0,0.14
2013-3-22,38,31,24,-100,-100,-100,0,0,100,0.00,40.00,0,-999,0,0.02
2013-3-23,39,32,26,-100,-100,-100,0,0,100,0.00,40.00,0,-999,0,0.01
2013-3-24,42,36,29,-100,-100,-100,0,0,100,0.00,40.00,0,-999,0,0.00
2013-3-25,40,32,21,-100,-100,-100,0,0,100,0.00,40.00,0,-999,0,0.00
2013-3-26,47,38,32,-100,-100,-100,0,0,100,0.00,40.00,0,-999,0,0.00
2013-3-27,48,38,28,-100,-100,-100,0,0,100,0.00,40.00,0,-999,0,0.00
2013-3-28,45,39,34,-100,-100,-100,0,0,100,0.00,40.00,0,-999,0,0.00
2013-3-29,50,42,35,-100,-100,-100,0,0,100,0.00,40.00,0,-999,0,0.00
2013-3-30,51,41,32,-100,-100,-100,0,0,100,0.00,40.00,0,-999,0,0.00
2013-3-31,54,41,27,-100,-100,-100,0,0,100,0.00,40.00,0,-999,0,0.01
2013-4-1,51,40,32,-100,-100,-100,0,0,100,0.00,40.00,0,-999,0,0.36
2013-4-2,36,31,27,-100,-100,-100,0,0,100,0.00,40.00,0,-999,0,0.01
2013-4-3,41,34,27,-100,-100,-100,0,0,100,0.00,40.00,0,-999,0,0.00
2013-4-4,51,40,31,-100,-100,-100,0,0,100,0.00,40.00,0,-999,0,0.00
2013-4-5,53,43,35,-100,-100,-100,0,0,100,0.00,40.00,0,-999,0,0.00
2013-4-6,40,33,26,-100,-100,-100,0,0,100,0.00,40.00,0,-999,0,0.00
2013-4-7,55,40,28,-100,-100,-100,0,0,100,0.00,40.00,0,-999,0,0.00
2013-4-8,57,47,40,-100,-100,-100,0,0,100,0.00,40.00,0,-999,0,0.00
2013-4-9,54,44,40,-100,-100,-100,0,0,100,0.00,40.00,0,-999,0,0.16
2013-4-10,56,47,41,-100,-100,-100,0,0,100,0.00,40.00,0,-999,0,0.52
2013-4-11,47,43,41,-100,-100,-100,0,0,100,0.00,40.00,0,-999,0,0.29
2013-4-12,41,34,31,-100,-100,-100,0,0,100,0.00,40.00,0,-999,0,0.01
2013-4-13,48,40,33,-100,-100,-100,0,0,100,0.00,40.00,0,-999,0,0.48
2013-4-14,48,43,37,-100,-100,-100,0,0,100,0.00,40.00,0,-999,0,0.01
2013-4-15,56,44,31,-100,-100,-100,0,0,100,0.00,40.00,0,-999,0,0.00
2013-4-16,61,48,35,-100,-100,-100,0,0,100,0.00,40.00,0,-999,0,0.02
2013-4-17,58,52,42,-100,-100,-100,0,0,100,0.00,40.00,0,-999,0,0.01
2013-4-18,58,47,34,-100,-100,-100,0,0,100,0.00,40.00,0,-999,0,0.00
2013-4-19,69,59,49,-100,-100,-100,0,0,100,0.00,40.00,0,-999,0,0.00
2013-4-20,63,49,40,-100,-100,-100,0,0,100,0.00,40.00,0,-999,0,0.37
2013-4-21,50,41,34,-100,-100,-100,0,0,100,0.00,40.00,0,-999,0,0.01
2013-4-22,51,41,32,-100,-100,-100,0,0,100,0.00,40.00,0,-999,0,0.00
2013-4-23,41,37,33,-100,-100,-100,0,0,100,0.00,40.00,0,-999,0,0.00
2013-4-24,72,55,40,-100,-100,-100,0,0,100,0.00,40.00,0,-999,0,0.00
2013-4-25,60,54,42,-100,-100,-100,0,0,100,0.00,40.00,0,-999,0,0.00
2013-4-26,56,47,34,-100,-100,-100,0,0,100,0.00,40.00,0,-999,0,0.00
2013-4-27,64,51,37,-100,-100,-100,0,0,100,0.00,40.00,0,-999,0,0.00
2013-4-28,68,53,39,-100,-100,-100,0,0,100,0.00,40.00,0,-999,0,0.00
2013-4-29,67,55,42,-100,-100,-100,0,0,100,0.00,40.00,0,-999,0,0.00
2013-4-30,69,60,51,-100,-100,-100,0,0,100,0.00,40.00,0,-999,0,0.00
2013-5-1,73,58,42,-100,-100,-100,0,0,100,0.00,40.00,0,-999,0,0.00
2013-5-2,75,57,45,-100,-100,-100,0,0,100,0.00,40.00,0,-999,0,0.00
2013-5-3,65,53,41,-100,-100,-100,0,0,100,0.00,40.00,0,-999,0,0.00
2013-5-4,69,55,45,-100,-100,-100,0,0,100,0.00,40.00,0,-999,0,0.00
2013-5-5,69,53,39,-100,-100,-100,0,0,100,0.00,40.00,0,-999,0,0.00
2013-5-6,73,57,42,-100,-100,-100,0,0,100,0.00,40.00,0,-999,0,0.00
2013-5-7,78,64,47,-100,-100,-100,0,0,100,0.00,40.00,0,-999,0,0.00
2013-5-8,73,64,54,-100,-100,-100,0,0,100,0.00,40.00,0,-999,0,0.04
2013-5-9,65,60,56,-100,-100,-100,0,0,100,0.00,40.00,0,-999,0,0.27
2013-5-10,75,65,57,-100,-100,-100,0,0,100,0.00,40.00,0,-999,0,0.01
2013-5-11,66,62,58,-100,-100,-100,0,0,100,0.00,40.00,0,-999,0,0.22
2013-5-12,67,59,49,-100,-100,-100,0,0,100,0.00,40.00,0,-999,0,0.05
2013-5-13,53,48,43,-100,-100,-100,0,0,100,0.00,40.00,0,-999,0,0.00
2013-5-14,57,49,41,-100,-100,-100,0,0,100,0.00,40.00,0,-999,0,0.00
2013-5-15,64,50,37,-100,-100,-100,0,0,100,0.00,40.00,0,-999,0,0.11
2013-5-16,74,60,51,-100,-100,-100,0,0,100,0.00,40.00,0,-999,0,0.03
2013-5-17,63,56,49,-100,-100,-100,0,0,100,0.00,40.00,0,-999,0,0.00
2013-5-18,71,59,46,-100,-100,-100,0,0,100,0.00,40.00,0,-999,0,0.00
2013-5-19,62,54,48,-100,-100,-100,0,0,100,0.00,40.00,0,-999,0,0.13
2013-5-20,71,62,54,-100,-100,-100,0,0,100,0.00,40.00,0,-999,0,0.36
2013-5-21,63,57,51,-100,-100,-100,0,0,100,0.00,40.00,0,-999,0,0.01
2013-5-22,60,55,51,-100,-100,-100,0,0,100,0.00,40.00,0,-999,0,0.23
2013-5-23,68,60,53,-100,-100,-100,0,0,100,0.00,40.00,0,-999,0,0.15
2013-5-24,68,61,48,-100,-100,-100,0,0,100,0.00,40.00,0,-999,0,0.11
2013-5-25,48,45,36,-100,-100,-100,0,0,100,0.00,40.00,0,-999,0,0.03
2013-5-26,53,46,36,-100,-100,-100,0,0,100,0.00,40.00,0,-999,0,0.01
2013-5-27,66,55,42,-100,-100,-100,0,0,100,0.00,40.00,0,-999,0,0.02
2013-5-28,72,58,43,-100,-100,-100,0,0,100,0.00,40.00,0,-999,0,0.01
2013-5-29,56,54,52,-100,-100,-100,0,0,100,0.00,40.00,0,-999,0,0.19
2013-5-30,84,70,56,-100,-100,-100,0,0,100,0.00,40.00,0,-999,0,0.15
2013-5-31,87,74,60,-100,-100,-100,0,0,100,0.00,40.00,0,-999,0,0.01
2013-6-1,87,77,64,-100,-100,-100,0,0,100,0.00,40.00,0,-999,0,0.00
2013-6-2,86,74,66,-100,-100,-100,0,0,100,0.00,40.00,0,-999,0,0.34
2013-6-3,77,69,62,-100,-100,-100,0,0,100,0.00,40.00,0,-999,0,0.25
2013-6-4,64,59,53,-100,-100,-100,0,0,100,0.00,40.00,0,-999,0,0.00
2013-6-5,72,62,51,-100,-100,-100,0,0,100,0.00,40.00,0,-999,0,0.00
2013-6-6,73,64,57,-100,-100,-100,0,0,100,0.00,40.00,0,-999,0,0.00
2013-6-7,60,54,50,-100,-100,-100,0,0,100,0.00,40.00,0,-999,0,0.19
2013-6-8,71,61,52,-100,-100,-100,0,0,100,0.00,40.00,0,-999,0,0.19
2013-6-9,74,66,57,-100,-100,-100,0,0,100,0.00,40.00,0,-999,0,0.01
2013-6-10,72,63,55,-100,-100,-100,0,0,100,0.00,40.00,0,-999,0,0.06
2013-6-11,59,56,54,-100,-100,-100,0,0,100,0.00,40.00,0,-999,0,0.18
2013-6-12,66,61,56,-100,-100,-100,0,0,100,0.00,40.00,0,-999,0,0.04
2013-6-13,70,61,54,-100,-100,-100,0,0,100,0.00,40.00,0,-999,0,0.01
2013-6-14,74,63,55,-100,-100,-100,0,0,100,0.00,40.00,0,-999,0,0.01
2013-6-15,74,66,55,-100,-100,-100,0,0,100,0.00,40.00,0,-999,0,0.01
2013-6-16,74,64,54,-100,-100,-100,0,0,100,0.00,40.00,0,-999,0,0.01
2013-6-17,79,68,60,-100,-100,-100,0,0,100,0.00,40.00,0,-999,0,0.01
2013-6-18,66,62,57,-100,-100,-100,0,0,100,0.00,40.00,0,-999,0,0.01
2013-6-19,73,64,51,-100,-100,-100,0,0,100,0.00,40.00,0,-999,0,0.01
2013-6-20,75,63,50,-100,-100,-100,0,0,100,0.00,40.00,0,-999,0,0.01
2013-6-22,81,76,70,-100,-100,-100,0,0,100,0.00,40.00,0,-999,0,0.03
2013-6-23,84,71,66,-100,-100,-100,0,0,100,0.00,40.00,0,-999,0,0.02
2013-6-24,90,75,68,-100,-100,-100,0,0,100,0.00,40.00,0,-999,0,0.01
2013-6-25,87,76,68,-100,-100,-100,0,0,100,0.00,40.00,0,-999,0,0.01
2013-6-26,76,70,65,-100,-100,-100,0,0,100,0.00,40.00,0,-999,0,0.01
2013-6-27,73,67,62,-100,-100,-100,0,0,100,0.00,40.00,0,-999,0,0.01
2013-6-28,66,62,58,-100,-100,-100,0,0,100,0.00,40.00,0,-999,0,0.01
2013-6-29,81,70,64,-100,-100,-100,0,0,100,0.00,40.00,0,-999,0,0.01
2013-6-30,83,73,68,-100,-100,-100,0,0,100,0.00,40.00,0,-999,0,0.03
2013-7-1,77,72,68,-100,-100,-100,0,0,100,0.00,40.00,0,-999,0,0.02
2013-7-2,75,66,62,-100,-100,-100,0,0,100,0.00,40.00,0,-999,0,0.01
2013-7-3,84,73,62,-100,-100,-100,0,0,100,0.00,40.00,0,-999,0,0.01
2013-7-4,89,80,70,-100,-100,-100,0,0,100,0.00,40.00,0,-999,0,0.01
2013-7-5,90,82,73,-100,-100,-100,0,0,100,0.00,40.00,0,-999,0,0.01
2013-7-6,86,79,74,-100,-100,-100,0,0,100,0.00,40.00,0,-999,0,0.00
2013-7-7,87,78,71,-100,-100,-100,0,0,100,0.00,40.00,0,-999,0,0.00
2013-7-8,79,74,68,-100,-100,-100,0,0,100,0.00,40.00,0,-999,0,0.05
2013-7-9,75,70,67,-100,-100,-100,0,0,100,0.00,40.00,0,-999,0,0.34
2013-7-10,76,70,68,-100,-100,-100,0,0,100,0.00,40.00,0,-999,0,0.34
2013-7-11,80,75,68,-100,-100,-100,0,0,100,0.00,40.00,0,-999,0,0.00
2013-7-12,78,70,63,-100,-100,-100,0,0,100,0.00,40.00,0,-999,0,0.00
2013-7-13,81,72,64,-100,-100,-100,0,0,100,0.00,40.00,0,-999,0,0.00
2013-7-14,86,78,70,-100,-100,-100,0,0,100,0.00,40.00,0,-999,0,0.00
2013-7-15,90,80,70,-100,-100,-100,0,0,100,0.00,40.00,0,-999,0,0.00
2013-7-16,88,81,71,-100,-100,-100,0,0,100,0.00,40.00,0,-999,0,0.00
2013-7-17,91,81,71,-100,-100,-100,0,0,100,0.00,40.00,0,-999,0,0.00
2013-7-18,90,78,73,-100,-100,-100,0,0,100,0.00,40.00,0,-999,0,0.00
2013-7-19,92,82,71,-100,-100,-100,0,0,100,0.00,40.00,0,-999,0,0.00
2013-7-20,86,79,72,-100,-100,-100,0,0,100,0.00,40.00,0,-999,0,0.00
2013-7-21,81,74,67,-100,-100,-100,0,0,100,0.00,40.00,0,-999,0,0.00
2013-7-22,74,69,66,-100,-100,-100,0,0,100,0.00,40.00,0,-999,0,0.00
2013-7-23,73,67,63,-100,-100,-100,0,0,100,0.00,40.00,0,-999,0,0.00
2013-7-24,79,70,58,-100,-100,-100,0,0,100,0.00,40.00,0,-999,0,0.00
2013-7-25,70,63,54,-100,-100,-100,0,0,100,0.00,40.00,0,-999,0,0.00
2013-7-26,72,67,62,-100,-100,-100,0,0,100,0.00,40.00,0,-999,0,0.00
2013-7-27,82,73,62,-100,-100,-100,0,0,100,0.00,40.00,0,-999,0,0.00
2013-7-28,81,71,64,-100,-100,-100,0,0,100,0.00,40.00,0,-999,0,0.00
2013-7-29,81,69,65,-100,-100,-100,0,0,100,0.00,40.00,0,-999,0,0.00
2013-7-30,77,70,62,-100,-100,-100,0,0,100,0.00,40.00,0,-999,0,0.00
2013-7-31,81,71,60,-100,-100,-100,0,0,100,0.00,40.00,0,-999,0,0.00
2013-8-1,80,70,63,-100,-100,-100,0,0,100,0.00,40.00,0,-999,0,0.00
2013-8-2,80,71,65,-100,-100,-100,0,0,100,0.00,40.00,0,-999,0,0.00
2013-8-3,78,70,63,-100,-100,-100,0,0,100,0.00,40.00,0,-999,0,0.00
2013-8-4,74,67,61,-100,-100,-100,0,0,100,0.00,40.00,0,-999,0,0.00
2013-8-5,71,64,59,-100,-100,-100,0,0,100,0.00,40.00,0,-999,0,0.00
2013-8-6,77,66,54,-100,-100,-100,0,0,100,0.00,40.00,0,-999,0,0.00
2013-8-7,77,68,57,-100,-100,-100,0,0,100,0.00,40.00,0,-999,0,0.00
2013-8-8,82,72,65,-100,-100,-100,0,0,100,0.00,40.00,0,-999,0,0.00
2013-8-9,75,73,69,-100,-100,-100,0,0,100,0.00,40.00,0,-999,0,0.00
2013-8-10,77,72,63,-100,-100,-100,0,0,100,0.00,40.00,0,-999,0,0.00
2013-8-11,77,67,57,-100,-100,-100,0,0,100,0.00,40.00,0,-999,0,0.00
2013-8-12,79,69,61,-100,-100,-100,0,0,100,0.00,40.00,0,-999,0,0.00
2013-8-13,72,67,62,-100,-100,-100,0,0,100,0.00,40.00,0,-999,0,0.00
2013-8-14,71,66,60,-100,-100,-100,0,0,100,0.00,40.00,0,-999,0,0.00
2013-8-15,73,64,55,-100,-100,-100,0,0,100,0.00,40.00,0,-999,0,0.00
2013-8-16,77,67,57,-100,-100,-100,0,0,100,0.00,40.00,0,-999,0,0.00
2013-8-17,77,68,59,-100,-100,-100,0,0,100,0.00,40.00,0,-999,0,0.00
2013-8-18,79,69,59,-100,-100,-100,0,0,100,0.00,40.00,0,-999,0,0.00
2013-8-19,82,71,61,-100,-100,-100,0,0,100,0.00,40.00,0,-999,0,0.00
2013-8-20,83,73,63,-100,-100,-100,0,0,100,0.00,40.00,0,-999,0,0.00
2013-8-21,85,74,64,-100,-100,-100,0,0,100,0.00,40.00,0,-999,0,0.00
2013-8-22,85,76,68,-100,-100,-100,0,0,100,0.00,40.00,0,-999,0,0.00
2013-8-23,76,70,61,-100,-100,-100,0,0,100,0.00,40.00,0,-999,0,0.00
2013-8-24,77,66,53,-100,-100,-100,0,0,100,0.00,40.00,0,-999,0,0.00
2013-8-25,79,68,56,-100,-100,-100,0,0,100,0.00,40.00,0,-999,0,0.00
2013-8-26,77,70,63,-100,-100,-100,0,0,100,0.00,40.00,0,-999,0,0.00
2013-8-27,81,72,67,-100,-100,-100,0,0,100,0.00,40.00,0,-999,0,0.00
2013-8-28,83,76,66,-100,-100,-100,0,0,100,0.00,40.00,0,-999,0,0.00
2013-8-29,68,66,63,-100,-100,-100,0,0,100,0.00,40.00,0,-999,0,0.00
2013-8-30,83,72,63,-100,-100,-100,0,0,100,0.00,40.00,0,-999,0,0.00
2013-8-31,79,74,69,-100,-100,-100,0,0,100,0.00,40.00,0,-999,0,0.00
2013-9-1,84,76,70,-100,-100,-100,0,0,100,0.00,40.00,0,-999,0,0.00
2013-9-2,75,71,68,-100,-100,-100,0,0,100,0.00,40.00,0,-999,0,0.00
2013-9-3,76,70,66,-100,-100,-100,0,0,100,0.00,40.00,0,-999,0,0.00
2013-9-4,77,70,62,-100,-100,-100,0,0,100,0.00,40.00,0,-999,0,0.00
2013-9-5,66,62,53,-100,-100,-100,0,0,100,0.00,40.00,0,-999,0,0.00
2013-9-6,68,58,47,-100,-100,-100,0,0,100,0.00,40.00,0,-999,0,0.00
2013-9-7,74,65,55,-100,-100,-100,0,0,100,0.00,40.00,0,-999,0,0.00
2013-9-8,67,61,51,-100,-100,-100,0,0,100,0.00,40.00,0,-999,0,0.00
2013-9-9,69,58,47,-100,-100,-100,0,0,100,0.00,40.00,0,-999,0,0.00
2013-9-10,71,62,56,-100,-100,-100,0,0,100,0.00,40.00,0,-999,0,0.00
2013-9-11,89,76,66,-100,-100,-100,0,0,100,0.00,40.00,0,-999,0,0.00
2013-9-12,77,70,67,-100,-100,-100,0,0,100,0.00,40.00,0,-999,0,0.00
2013-9-13,71,65,58,-100,-100,-100,0,0,100,0.00,40.00,0,-999,0,0.00
2013-9-14,64,59,54,-100,-100,-100,0,0,100,0.00,40.00,0,-999,0,0.00
2013-9-15,69,58,49,-100,-100,-100,0,0,100,0.00,40.00,0,-999,0,0.00
2013-9-16,62,57,45,-100,-100,-100,0,0,100,0.00,40.00,0,-999,0,0.00
2013-9-17,64,52,42,-100,-100,-100,0,0,100,0.00,40.00,0,-999,0,0.00
2013-9-18,56,49,46,-100,-100,-100,0,0,100,0.00,40.00,0,-999,0,0.00
2013-9-19,75,62,51,-100,-100,-100,0,0,100,0.00,40.00,0,-999,0,0.00
2013-9-20,76,63,52,-100,-100,-100,0,0,100,0.00,40.00,0,-999,0,0.00
2013-9-21,73,63,55,-100,-100,-100,0,0,100,0.00,40.00,0,-999,0,0.00
2013-9-22,68,63,51,-100,-100,-100,0,0,100,0.00,40.00,0,-999,0,0.00
2013-9-23,55,50,47,-100,-100,-100,0,0,100,0.00,40.00,0,-999,0,0.00
2013-9-24,60,53,47,-100,-100,-100,0,0,100,0.00,40.00,0,-999,0,0.00
2013-9-25,63,56,50,-100,-100,-100,0,0,100,0.00,40.00,0,-999,0,0.00
2013-9-26,66,56,45,-100,-100,-100,0,0,100,0.00,40.00,0,-999,0,0.00
2013-9-27,67,59,54,-100,-100,-100,0,0,100,0.00,40.00,0,-999,0,0.00
2013-9-28,70,59,50,-100,-100,-100,0,0,100,0.00,40.00,0,-999,0,0.00
2013-9-29,67,58,50,-100,-100,-100,0,0,100,0.00,40.00,0,-999,0,0.00
2013-9-30,68,56,47,-100,-100,-100,0,0,100,0.00,40.00,0,-999,0,0.00
2013-10-1,66,61,54,-100,-100,-100,0,0,100,0.00,40.00,0,-999,0,0.00
2013-10-2,77,65,55,-100,-100,-100,0,0,100,0.00,40.00,0,-999,0,0.00
2013-10-3,73,64,55,-100,-100,-100,0,0,100,0.00,40.00,0,-999,0,0.00
2013-10-4,68,61,50,-100,-100,-100,0,0,100,0.00,40.00,0,-999,0,0.00
2013-10-5,64,60,58,-100,-100,-100,0,0,100,0.00,40.00,0,-999,0,0.00
2013-10-6,60,53,49,-100,-100,-100,0,0,100,0.00,40.00,0,-999,0,0.00
2013-10-7,70,57,51,-100,-100,-100,0,0,100,0.00,40.00,0,-999,0,0.00
2013-10-8,61,55,46,-100,-100,-100,0,0,100,0.00,40.00,0,-999,0,0.00
2013-10-9,61,50,42,-100,-100,-100,0,0,100,0.00,40.00,0,-999,0,0.00
2013-10-10,63,52,44,-100,-100,-100,0,0,100,0.00,40.00,0,-999,0,0.00
2013-10-11,66,55,49,-100,-100,-100,0,0,100,0.00,40.00,0,-999,0,0.00
2013-10-12,55,53,48,-100,-100,-100,0,0,100,0.00,40.00,0,-999,0,0.00
2013-10-13,56,51,46,-100,-100,-100,0,0,100,0.00,40.00,0,-999,0,0.00
2013-10-14,65,54,44,-100,-100,-100,0,0,100,0.00,40.00,0,-999,0,0.00
2013-10-15,64,58,53,-100,-100,-100,0,0,100,0.00,40.00,0,-999,0,0.00
2013-10-16,60,56,52,-100,-100,-100,0,0,100,0.00,40.00,0,-999,0,0.00
2013-10-17,70,59,52,-100,-100,-100,0,0,100,0.00,40.00,0,-999,0,0.00
2013-10-18,63,57,54,-100,-100,-100,0,0,100,0.00,40.00,0,-999,0,0.00
2013-10-19,63,55,45,-100,-100,-100,0,0,100,0.00,40.00,0,-999,0,0.00
2013-10-20,58,54,48,-100,-100,-100,0,0,100,0.00,40.00,0,-999,0,0.00
2013-10-21,62,52,41,-100,-100,-100,0,0,100,0.00,40.00,0,-999,0,0.00
2013-10-22,56,52,46,-100,-100,-100,0,0,100,0.00,40.00,0,-999,0,0.00
2013-10-23,53,47,41,-100,-100,-100,0,0,100,0.00,40.00,0,-999,0,0.00
2013-10-24,49,45,40,-100,-100,-100,0,0,100,0.00,40.00,0,-999,0,0.00
2013-10-25,45,41,36,-100,-100,-100,0,0,100,0.00,40.00,0,-999,0,0.00
2013-10-26,49,43,35,-100,-100,-100,0,0,100,0.00,40.00,0,-999,0,0.00
2013-10-27,52,47,39,-100,-100,-100,0,0,100,0.00,40.00,0,-999,0,0.00
2013-10-28,52,43,36,-100,-100,-100,0,0,100,0.00,40.00,0,-999,0,0.00
2013-10-29,47,37,30,-100,-100,-100,0,0,100,0.00,40.00,0,-999,0,0.00
2013-10-30,48,40,34,-100,-100,-100,0,0,100,0.00,40.00,0,-999,0,0.00
2013-10-31,56,42,36,-100,-100,-100,0,0,100,0.00,40.00,0,-999,0,0.00
2013-11-1,65,60,55,-100,-100,-100,0,0,100,0.00,40.00,0,-999,0,0.00
2013-11-2,61,52,45,-100,-100,-100,0,0,100,0.00,40.00,0,-999,0,0.00
2013-11-3,45,38,31,-100,-100,-100,0,0,100,0.00,40.00,0,-999,0,0.00
2013-11-4,42,33,27,-100,-100,-100,0,0,100,0.00,40.00,0,-999,0,0.00
2013-11-5,47,37,29,-100,-100,-100,0,0,100,0.00,40.00,0,-999,0,0.00
2013-11-6,57,47,38,-100,-100,-100,0,0,100,0.00,40.00,0,-999,0,0.00
2013-11-7,56,51,41,-100,-100,-100,0,0,100,0.00,40.00,0,-999,0,0.00
2013-11-8,43,38,33,-100,-100,-100,0,0,100,0.00,40.00,0,-999,0,0.00
2013-11-9,42,39,35,-100,-100,-100,0,0,100,0.00,40.00,0,-999,0,0.00
2013-11-10,43,39,35,-100,-100,-100,0,0,100,0.00,40.00,0,-999,0,0.00
2013-11-11,47,42,37,-100,-100,-100,0,0,100,0.00,40.00,0,-999,0,0.00
2013-11-12,44,32,27,-100,-100,-100,0,0,100,0.00,40.00,0,-999,0,0.00
2013-11-13,32,28,22,-100,-100,-100,0,0,100,0.00,40.00,0,-999,0,0.00
2013-11-14,46,37,30,-100,-100,-100,0,0,100,0.00,40.00,0,-999,0,0.00
2013-11-15,51,40,33,-100,-100,-100,0,0,100,0.00,40.00,0,-999,0,0.00
2013-11-16,54,41,35,-100,-100,-100,0,0,100,0.00,40.00,0,-999,0,0.00
2013-11-17,45,39,32,-100,-100,-100,0,0,100,0.00,40.00,0,-999,0,0.00
2013-11-18,59,53,45,-100,-100,-100,0,0,100,0.00,40.00,0,-999,0,0.00
2013-11-19,46,36,31,-100,-100,-100,0,0,100,0.00,40.00,0,-999,0,0.00
2013-11-20,39,32,27,-100,-100,-100,0,0,100,0.00,40.00,0,-999,0,0.00
2013-11-21,44,34,25,-100,-100,-100,0,0,100,0.00,40.00,0,-999,0,0.00
2013-11-22,39,37,34,-100,-100,-100,0,0,100,0.00,40.00,0,-999,0,0.00
2013-11-23,42,36,27,-100,-100,-100,0,0,100,0.00,40.00,0,-999,0,0.00
2013-11-24,27,21,17,-100,-100,-100,0,0,100,0.00,40.00,0,-999,0,0.00
2013-11-25,29,22,16,-100,-100,-100,0,0,100,0.00,40.00,0,-999,0,0.00
2013-11-26,35,31,27,-100,-100,-100,0,0,100,0.00,40.00,0,-999,0,0.00
2013-11-27,45,39,32,-100,-100,-100,0,0,100,0.00,40.00,0,-999,0,0.00
2013-11-28,35,28,21,-100,-100,-100,0,0,100,0.00,40.00,0,-999,0,0.00
2013-11-29,27,22,18,-100,-100,-100,0,0,100,0.00,40.00,0,-999,0,0.00
2013-11-30,30,23,14,-100,-100,-100,0,0,100,0.00,40.00,0,-999,0,0.00
2013-12-1,35,33,29,-100,-100,-100,0,0,100,0.00,40.00,0,-999,0,0.00
2013-12-2,40,37,35,-100,-100,-100,0,0,100,0.00,40.00,0,-999,0,0.00
2013-12-3,45,36,33,-100,-100,-100,0,0,100,0.00,40.00,0,-999,0,0.00
2013-12-4,39,34,30,-100,-100,-100,0,0,100,0.00,40.00,0,-999,0,0.00
2013-12-5,37,34,29,-100,-100,-100,0,0,100,0.00,40.00,0,-999,0,0.00
2013-12-6,44,40,35,-100,-100,-100,0,0,100,0.00,40.00,0,-999,0,0.00
2013-12-7,35,32,26,-100,-100,-100,0,0,100,0.00,40.00,0,-999,0,0.00
2013-12-8,28,26,22,-100,-100,-100,0,0,100,0.00,40.00,0,-999,0,0.00
2013-12-9,29,26,23,-100,-100,-100,0,0,100,0.00,40.00,0,-999,0,0.00
2013-12-10,35,31,24,-100,-100,-100,0,0,100,0.00,40.00,0,-999,0,0.00
2013-12-11,30,25,21,-100,-100,-100,0,0,100,0.00,40.00,0,-999,0,0.00
2013-12-12,21,17,13,-100,-100,-100,0,0,100,0.00,40.00,0,-999,0,0.00
2013-12-13,23,16,7,-100,-100,-100,0,0,100,0.00,40.00,0,-999,0,0.00
2013-12-14,16,9,4,-100,-100,-100,0,0,100,0.00,40.00,0,-999,0,0.00
2013-12-15,29,20,11,-100,-100,-100,0,0,100,0.00,40.00,0,-999,0,0.00
2013-12-16,23,19,8,-100,-100,-100,0,0,100,0.00,40.00,0,-999,0,0.00
2013-12-17,12,9,4,-100,-100,-100,0,0,100,0.00,40.00,0,-999,0,0.00
2013-12-18,31,22,12,-100,-100,-100,0,0,100,0.00,40.00,0,-999,0,0.00
2013-12-19,36,30,24,-100,-100,-100,0,0,100,0.00,40.00,0,-999,0,0.00
2013-12-20,37,34,32,-100,-100,-100,0,0,100,0.00,40.00,0,-999,0,0.00
2013-12-21,41,36,34,-100,-100,-100,0,0,100,0.00,40.00,0,-999,0,0.00
2013-12-22,38,33,30,-100,-100,-100,0,0,100,0.00,40.00,0,-999,0,0.00
2013-12-23,35,32,29,-100,-100,-100,0,0,100,0.00,40.00,0,-999,0,0.00
2013-12-24,35,28,16,-100,-100,-100,0,0,100,0.00,40.00,0,-999,0,0.00
2013-12-25,21,14,7,-100,-100,-100,0,0,100,0.00,40.00,0,-999,0,0.00
2013-12-26,24,19,14,-100,-100,-100,0,0,100,0.00,40.00,0,-999,0,0.00
2013-12-27,32,22,12,-100,-100,-100,0,0,100,0.00,40.00,0,-999,0,0.00
2013-12-28,38,29,16,-100,-100,-100,0,0,100,0.00,40.00,0,-999,0,0.00
2013-12-29,35,31,27,-100,-100,-100,0,0,100,0.00,40.00,0,-999,0,0.00
2013-12-30,35,27,9,-100,-100,-100,0,0,100,0.00,40.00,0,-999,0,0.00
2013-12-31,18,12,6,-100,-100,-100,0,0,100,0.00,40.00,0,-999,0,0.00
2014-1-1,23,16,9,-100,-100,-100,0,0,100,0.00,40.00,0,-999,0,0.00
2014-1-2,13,7,-1,-100,-100,-100,0,0,100,0.00,40.00,0,-999,0,0.00